• In Denmark
  • List of Countries
  • For 7 days
  • Water Temperature
  • Satellite Maps
  • Weather Map
  • Weather Widgets
  • user-avatar
    Login

    Hourly Weather Eisenstadt

    Today, 18 July, Wednesday

    Time Temperature Precipitation Wind Pressure Humidity
    00:00 +18°C° 0 mm 3 mps 720 mmHg 70%
    01:00 +18°C° 0 mm 3 mps 720 mmHg 71%
    02:00 +17°C° 0 mm 3 mps 720 mmHg 71%
    03:00 +17°C° 0 mm 3 mps 720 mmHg 72%
    04:00 +17°C° 0 mm 3 mps 720 mmHg 72%
    05:00 +18°C° 0 mm 4 mps 720 mmHg 70%
    06:00 +19°C° 0 mm 4 mps 720 mmHg 67%
    07:00 +20°C° 0 mm 4 mps 720 mmHg 65%
    08:00 +21°C° 0 mm 5 mps 720 mmHg 61%
    09:00 +22°C° 0 mm 6 mps 721 mmHg 57%
    10:00 +23°C° 0 mm 6 mps 721 mmHg 53%
    11:00 +24°C° 0 mm 6 mps 721 mmHg 50%
    12:00 +26°C° 0 mm 6 mps 721 mmHg 47%
    13:00 +27°C° 0 mm 6 mps 721 mmHg 43%
    14:00 +27°C° 0 mm 6 mps 721 mmHg 46%
    15:00 +26°C° 0 mm 6 mps 721 mmHg 48%
    16:00 +26°C° 0 mm 6 mps 721 mmHg 50%
    17:00 +25°C° 0 mm 5 mps 721 mmHg 56%
    18:00 +22°C° 0 mm 5 mps 721 mmHg 61%
    19:00 +21°C° 0 mm 4 mps 721 mmHg 67%
    20:00 +20°C° 0 mm 4 mps 721 mmHg 68%
    21:00 +20°C° 0 mm 4 mps 721 mmHg 69%
    22:00 +19°C° 0 mm 4 mps 721 mmHg 70%
    23:00 +19°C° 0 mm 4 mps 721 mmHg 71%

    Tomorrow, 19 July, Thursday

    Time Temperature Precipitation Wind Pressure Humidity
    00:00 +19°C° 0 mm 4 mps 721 mmHg 71%
    01:00 +18°C° 0 mm 4 mps 721 mmHg 72%
    02:00 +18°C° 0 mm 4 mps 721 mmHg 73%
    03:00 +18°C° 0 mm 4 mps 721 mmHg 74%
    04:00 +17°C° 0 mm 4 mps 721 mmHg 75%
    05:00 +17°C° 0 mm 5 mps 721 mmHg 71%
    06:00 +19°C° 0 mm 5 mps 721 mmHg 67%
    07:00 +20°C° 0 mm 6 mps 722 mmHg 63%
    08:00 +22°C° 0 mm 6 mps 722 mmHg 57%
    09:00 +23°C° 0 mm 6 mps 722 mmHg 51%
    10:00 +24°C° 0 mm 7 mps 722 mmHg 46%
    11:00 +26°C° 0 mm 7 mps 722 mmHg 44%
    12:00 +27°C° 0 mm 7 mps 722 mmHg 42%
    13:00 +27°C° 0 mm 7 mps 722 mmHg 41%
    14:00 +27°C° 0 mm 6 mps 722 mmHg 42%
    15:00 +27°C° 0 mm 6 mps 722 mmHg 43%
    16:00 +27°C° 0 mm 6 mps 722 mmHg 44%
    17:00 +25°C° 0 mm 5 mps 722 mmHg 50%
    18:00 +23°C° 0 mm 5 mps 722 mmHg 57%
    19:00 +21°C° 0 mm 4 mps 722 mmHg 64%
    20:00 +20°C° 0 mm 3 mps 722 mmHg 69%
    21:00 +19°C° 0 mm 3 mps 722 mmHg 73%
    22:00 +17°C° 0 mm 2 mps 723 mmHg 78%
    23:00 +17°C° 0 mm 2 mps 723 mmHg 79%

    Day after tomorrow, 20 July, Friday

    Time Temperature Precipitation Wind Pressure Humidity
    00:00 +17°C° 0 mm 2 mps 723 mmHg 79%
    01:00 +17°C° 0 mm 2 mps 723 mmHg 79%
    02:00 +16°C° 0 mm 2 mps 722 mmHg 79%
    03:00 +16°C° 0 mm 2 mps 722 mmHg 79%
    04:00 +16°C° 0 mm 2 mps 722 mmHg 79%
    05:00 +17°C° 0 mm 3 mps 722 mmHg 74%
    06:00 +19°C° 0 mm 3 mps 723 mmHg 68%
    07:00 +20°C° 0 mm 3 mps 723 mmHg 63%
    08:00 +22°C° 0 mm 3 mps 723 mmHg 56%
    09:00 +25°C° 0 mm 3 mps 723 mmHg 50%
    10:00 +26°C° 0 mm 3 mps 723 mmHg 43%
    11:00 +27°C° 0 mm 3 mps 723 mmHg 40%
    12:00 +28°C° 0 mm 3 mps 723 mmHg 37%
    13:00 +29°C° 0 mm 3 mps 722 mmHg 34%
    14:00 +29°C° 0 mm 3 mps 722 mmHg 34%
    15:00 +29°C° 0 mm 3 mps 722 mmHg 34%
    16:00 +29°C° 0 mm 3 mps 721 mmHg 34%
    17:00 +27°C° 0 mm 3 mps 721 mmHg 41%
    18:00 +25°C° 0 mm 2 mps 721 mmHg 49%
    19:00 +23°C° 0 mm 2 mps 721 mmHg 56%
    20:00 +21°C° 0 mm 2 mps 721 mmHg 59%
    21:00 +21°C° 0 mm 1 mps 721 mmHg 62%
    22:00 +19°C° 0 mm 1 mps 721 mmHg 66%
    23:00 +19°C° 0 mm 1 mps 721 mmHg 69%

    21 July, Saturday

    Time Temperature Precipitation Wind Pressure Humidity
    00:00 +18°C° 0 mm 1 mps 721 mmHg 72%
    01:00 +16°C° 0 mm 0 mps 720 mmHg 75%
    02:00 +15°C° 0 mm 0 mps 720 mmHg 77%
    03:00 +15°C° 0 mm 0 mps 720 mmHg 79%
    04:00 +15°C° 0 mm 0 mps 720 mmHg 81%
    05:00 +16°C° 0.1 mm 0 mps 720 mmHg 77%
    06:00 +18°C° 0.1 mm 0 mps 720 mmHg 73%
    07:00 +21°C° 0.1 mm 1 mps 720 mmHg 70%
    08:00 +22°C° 0.3 mm 1 mps 720 mmHg 66%
    09:00 +24°C° 0.3 mm 1 mps 720 mmHg 63%
    10:00 +25°C° 0.3 mm 1 mps 720 mmHg 59%
    11:00 +26°C° 0 mm 1 mps 720 mmHg 57%
    12:00 +27°C° 0 mm 1 mps 720 mmHg 54%
    13:00 +28°C° 0 mm 1 mps 720 mmHg 52%
    14:00 +28°C° 0.8 mm 1 mps 719 mmHg 55%
    15:00 +27°C° 0.8 mm 1 mps 719 mmHg 59%
    16:00 +27°C° 0.8 mm 1 mps 719 mmHg 63%
    17:00 +25°C° 0.5 mm 1 mps 719 mmHg 68%
    18:00 +24°C° 0.5 mm 1 mps 718 mmHg 72%
    19:00 +23°C° 0.5 mm 1 mps 718 mmHg 77%
    20:00 +22°C° 0.6 mm 1 mps 718 mmHg 80%
    21:00 +19°C° 0.6 mm 2 mps 718 mmHg 83%
    22:00 +18°C° 0.6 mm 2 mps 718 mmHg 86%
    23:00 +18°C° 0.7 mm 2 mps 718 mmHg 87%

    22 July, Sunday

    Time Temperature Precipitation Wind Pressure Humidity
    00:00 +18°C° 0.7 mm 2 mps 718 mmHg 88%
    01:00 +18°C° 0.7 mm 2 mps 718 mmHg 89%
    02:00 +17°C° 0.3 mm 2 mps 718 mmHg 89%
    03:00 +17°C° 0.3 mm 3 mps 718 mmHg 90%
    04:00 +17°C° 0.3 mm 3 mps 718 mmHg 90%
    05:00 +18°C° 0 mm 3 mps 718 mmHg 87%
    06:00 +19°C° 0 mm 4 mps 718 mmHg 84%
    07:00 +20°C° 0 mm 4 mps 719 mmHg 81%
    08:00 +21°C° 0.2 mm 4 mps 719 mmHg 74%
    09:00 +23°C° 0.2 mm 5 mps 719 mmHg 67%
    10:00 +25°C° 0.2 mm 5 mps 719 mmHg 59%
    11:00 +25°C° 0.3 mm 5 mps 719 mmHg 58%
    12:00 +26°C° 0.3 mm 6 mps 719 mmHg 57%
    13:00 +26°C° 0.3 mm 6 mps 719 mmHg 55%
    14:00 +26°C° 0.3 mm 6 mps 720 mmHg 59%
    15:00 +24°C° 0.3 mm 6 mps 720 mmHg 62%
    16:00 +23°C° 0.3 mm 6 mps 720 mmHg 65%
    17:00 +22°C° 0.1 mm 6 mps 720 mmHg 67%
    18:00 +21°C° 0.1 mm 6 mps 720 mmHg 69%
    19:00 +20°C° 0.1 mm 6 mps 721 mmHg 71%
    20:00 +19°C° 0 mm 5 mps 721 mmHg 71%
    21:00 +19°C° 0 mm 5 mps 721 mmHg 71%
    22:00 +17°C° 0 mm 5 mps 722 mmHg 71%
    23:00 +17°C° 0 mm 5 mps 722 mmHg 73%

    23 July, Monday

    Time Temperature Precipitation Wind Pressure Humidity
    00:00 +16°C° 0 mm 5 mps 722 mmHg 74%
    01:00 +16°C° 0 mm 5 mps 722 mmHg 76%
    02:00 +17°C° 0 mm 4 mps 722 mmHg 77%
    03:00 +15°C° 0 mm 4 mps 722 mmHg 78%
    04:00 +15°C° 0 mm 4 mps 722 mmHg 80%
    05:00 +17°C° 0 mm 4 mps 723 mmHg 75%
    06:00 +19°C° 0 mm 4 mps 723 mmHg 70%
    07:00 +20°C° 0 mm 5 mps 723 mmHg 66%
    08:00 +21°C° 0 mm 5 mps 723 mmHg 59%
    09:00 +23°C° 0 mm 5 mps 723 mmHg 53%
    10:00 +25°C° 0 mm 5 mps 723 mmHg 46%
    11:00 +26°C° 0 mm 5 mps 723 mmHg 44%
    12:00 +27°C° 0 mm 5 mps 723 mmHg 42%
    13:00 +28°C° 0 mm 5 mps 723 mmHg 39%
    14:00 +28°C° 0 mm 5 mps 722 mmHg 40%
    15:00 +28°C° 0 mm 5 mps 722 mmHg 40%
    16:00 +28°C° 0 mm 5 mps 722 mmHg 41%
    17:00 +26°C° 0 mm 4 mps 722 mmHg 48%
    18:00 +25°C° 0 mm 3 mps 722 mmHg 54%
    19:00 +22°C° 0 mm 3 mps 722 mmHg 60%
    20:00 +21°C° 0 mm 2 mps 722 mmHg 64%
    21:00 +20°C° 0 mm 2 mps 722 mmHg 68%
    22:00 +18°C° 0 mm 2 mps 723 mmHg 71%
    23:00 +18°C° 0 mm 2 mps 722 mmHg 73%
    Show more